| time (UTC) | temp F | wind direction | speed MPH | gust MPH | rain 1hr in | rain 24hr in | rain mn in | humidity % | barometer mb |
| 20260504081534 | 46 | 340 | 2.0 | 8.0 | 0.00 | 0.00 | 0.00 | 73 | 1008.7 |
| 20260504050016 | 46 | 334 | 1.0 | 4.0 | 0.00 | 0.00 | 0.00 | 71 | 1009.3 |
| 20260504044513 | 46 | 349 | 1.0 | 3.0 | 0.00 | 0.00 | 0.00 | 69 | 1009.4 |
| 20260504043011 | 46 | 67 | 0.0 | 1.0 | 0.00 | 0.00 | 0.00 | 69 | 1009.6 |
| 20260504041509 | 47 | 129 | 0.0 | 1.0 | 0.00 | 0.00 | 0.00 | 65 | 1009.7 |
| 20260504040015 | 47 | 130 | 0.0 | 6.0 | 0.00 | 0.00 | 0.00 | 65 | 1009.7 |
| 20260504034505 | 46 | 330 | 0.0 | 2.0 | 0.00 | 0.00 | 0.00 | 59 | 1009.8 |
| 20260504033005 | 45 | 345 | 2.0 | 3.0 | 0.00 | 0.00 | 0.00 | 57 | 1009.6 |
| 20260504031504 | 45 | 51 | 1.0 | 2.0 | 0.00 | 0.00 | 0.00 | 58 | 1009.5 |
| 20260504030008 | 44 | 319 | 0.0 | 1.0 | 0.00 | 0.00 | 0.00 | 62 | 1009.5 |
| 20260504024504 | 44 | 319 | 0.0 | 2.0 | 0.00 | 0.00 | 0.00 | 57 | 1009.6 |
| 20260504023003 | 44 | 330 | 0.0 | 0.0 | 0.00 | 0.00 | 0.00 | 56 | 1009.5 |
| 20260504021502 | 44 | 330 | 0.0 | 2.0 | 0.00 | 0.00 | 0.00 | 56 | 1009.4 |
| 20260504020003 | 44 | 330 | 0.0 | 2.0 | 0.00 | 0.00 | 0.00 | 58 | 1009.4 |
| 20260504014502 | 44 | 331 | 0.0 | 3.0 | 0.00 | 0.00 | 0.00 | 55 | 1009.5 |
| 20260504013002 | 45 | 107 | 0.0 | 0.0 | 0.00 | 0.00 | 0.00 | 52 | 1009.5 |
| 20260504011600 | 47 | 107 | 0.0 | 0.0 | 0.00 | 0.00 | 0.00 | 52 | 1009.3 |
| 20260504010059 | 48 | 109 | 0.0 | 3.0 | 0.00 | 0.00 | 0.00 | 48 | 1009.2 |
| 20260504004559 | 49 | 158 | 1.0 | 3.0 | 0.00 | 0.00 | 0.00 | 43 | 1009.0 |
| 20260504003107 | 50 | 137 | 0.0 | 3.0 | 0.00 | 0.00 | 0.00 | 41 | 1008.9 |
| 20260504001607 | 51 | 48 | 3.0 | 8.0 | 0.00 | 0.00 | 0.00 | 37 | 1008.6 |
| 20260504000127 | 51 | 104 | 2.0 | 10.0 | 0.00 | 0.00 | 0.00 | 37 | 1008.5 |
| 20260503234557 | 52 | 118 | 3.0 | 12.0 | 0.00 | 0.00 | 0.00 | 35 | 1008.4 |
| 20260503233056 | 53 | 137 | 4.0 | 8.0 | 0.00 | 0.00 | 0.00 | 30 | 1008.0 |
| 20260503231556 | 54 | 100 | 2.0 | 11.0 | 0.00 | 0.00 | 0.00 | 30 | 1007.9 |
| 20260503224554 | 55 | 169 | 3.0 | 6.0 | 0.00 | 0.00 | 0.00 | 30 | 1007.4 |
| 20260503223052 | 55 | 170 | 4.0 | 10.0 | 0.00 | 0.00 | 0.00 | 32 | 1007.3 |
| 20260503221553 | 54 | 156 | 2.0 | 7.0 | 0.00 | 0.00 | 0.00 | 35 | 1007.3 |
| 20260503220048 | 54 | 192 | 3.0 | 7.0 | 0.00 | 0.00 | 0.00 | 37 | 1007.3 |
| 20260503214546 | 53 | 132 | 4.0 | 7.0 | 0.00 | 0.00 | 0.00 | 40 | 1007.3 |
| 20260503213046 | 53 | 146 | 3.0 | 6.0 | 0.00 | 0.00 | 0.00 | 38 | 1007.4 |
| 20260503211541 | 52 | 175 | 2.0 | 5.0 | 0.00 | 0.00 | 0.00 | 42 | 1007.5 |
| 20260503210040 | 52 | 162 | 6.0 | 10.0 | 0.00 | 0.00 | 0.00 | 41 | 1007.6 |
| 20260503204542 | 51 | 170 | 4.0 | 9.0 | 0.00 | 0.00 | 0.00 | 49 | 1007.8 |
| 20260503203037 | 52 | 109 | 4.0 | 9.0 | 0.00 | 0.00 | 0.00 | 38 | 1007.9 |
| 20260503201535 | 52 | 154 | 4.0 | 10.0 | 0.00 | 0.00 | 0.00 | 39 | 1008.0 |
| 20260503200032 | 52 | 133 | 2.0 | 9.0 | 0.00 | 0.00 | 0.00 | 40 | 1008.1 |
| 20260503194533 | 51 | 120 | 2.0 | 11.0 | 0.00 | 0.00 | 0.00 | 41 | 1008.3 |
| 20260503193039 | 51 | 129 | 5.0 | 12.0 | 0.00 | 0.00 | 0.00 | 39 | 1008.5 |
| 20260503191528 | 51 | 110 | 4.0 | 16.0 | 0.00 | 0.00 | 0.00 | 41 | 1008.6 |
| 20260503190025 | 50 | 139 | 5.0 | 9.0 | 0.00 | 0.00 | 0.00 | 40 | 1008.7 |
| 20260503184526 | 51 | 165 | 3.0 | 12.0 | 0.00 | 0.00 | 0.00 | 43 | 1008.9 |
| 20260503183019 | 50 | 123 | 3.0 | 9.0 | 0.00 | 0.00 | 0.00 | 42 | 1009.0 |
| 20260503181518 | 49 | 155 | 2.0 | 11.0 | 0.00 | 0.00 | 0.00 | 47 | 1009.2 |
| 20260503180019 | 49 | 158 | 3.0 | 10.0 | 0.00 | 0.00 | 0.00 | 44 | 1009.2 |
| 20260503174513 | 48 | 70 | 6.0 | 11.0 | 0.00 | 0.00 | 0.00 | 43 | 1009.2 |
| 20260503173020 | 48 | 138 | 1.0 | 11.0 | 0.00 | 0.00 | 0.00 | 45 | 1009.3 |
| 20260503171517 | 48 | 136 | 3.0 | 9.0 | 0.00 | 0.00 | 0.00 | 47 | 1009.5 |